This is the latest recevied weather packets stored in our database for station/object KB9MLJ. If no packets are shown the sender has not sent any weather packets the latest 10 day(s).
| Time | Temp. | Humidity | Pressure | Rain* | Wind** | Luminosity | Snow |
|---|---|---|---|---|---|---|---|
| 1777577703 | 15.56° C | 42% | 1014.4 hPa | 0 mm | - | 321 W/m² | - |
| 1777577400 | 15.56° C | 42% | 1014.4 hPa | 0 mm | - | 261 W/m² | - |
| 1777577096 | 15.56° C | 42% | 1014.4 hPa | 0 mm | - | 278 W/m² | - |
| 1777576793 | 16.11° C | 42% | 1014.4 hPa | 0 mm | - | 287 W/m² | - |
| 1777576492 | 16.11° C | 43% | 1014.7 hPa | 0 mm | - | 312 W/m² | - |
| 1777576189 | 16.11° C | 43% | 1014.4 hPa | 0 mm | - | 322 W/m² | - |
| 1777575884 | 16.11° C | 45% | 1015 hPa | 0 mm | - | 731 W/m² | - |
| 1777575581 | 15.56° C | 43% | 1015 hPa | 0 mm | - | 787 W/m² | - |
| 1777575277 | 15.56° C | 45% | 1015 hPa | 0 mm | - | 420 W/m² | - |
| 1777574973 | 15° C | 44% | 1015 hPa | 0 mm | - | 842 W/m² | - |
| 1777574669 | 15.56° C | 45% | 1015 hPa | 0 mm | - | 317 W/m² | - |
| 1777574366 | 15° C | 46% | 1015.4 hPa | 0 mm | - | 656 W/m² | - |
| 1777574061 | 15° C | 44% | 1015.4 hPa | 0 mm | - | 221 W/m² | - |
| 1777573757 | 15.56° C | 43% | 1015.4 hPa | 0 mm | - | 353 W/m² | - |
| 1777573453 | 16.11° C | 44% | 1015.4 hPa | 0 mm | - | 384 W/m² | - |
| 1777573149 | 15° C | 46% | 1015.4 hPa | 0 mm | - | 411 W/m² | - |
| 1777572845 | 15° C | 44% | 1015.4 hPa | 0 mm | - | 267 W/m² | - |
| 1777572542 | 15.56° C | 42% | 1015.4 hPa | 0 mm | - | 773 W/m² | - |
| 1777572237 | 15.56° C | 44% | 1015.4 hPa | 0 mm | - | 360 W/m² | - |
| 1777571933 | 16.67° C | 42% | 1015.4 hPa | 0 mm | - | 764 W/m² | - |
| 1777571628 | 15.56° C | 46% | 1015.7 hPa | 0 mm | - | 754 W/m² | - |
| 1777571325 | 15° C | 46% | 1015.7 hPa | 0 mm | - | 773 W/m² | - |
| 1777571021 | 14.44° C | 46% | 1015.7 hPa | 0 mm | - | 579 W/m² | - |
| 1777570717 | 15.56° C | 45% | 1015.7 hPa | 0 mm | - | 257 W/m² | - |
| 1777570414 | 15° C | 45% | 1016.1 hPa | 0 mm | - | 759 W/m² | - |
* Rain latest hour (hover to see other rain measurements)
** Current wind speed in m/s (hover to see current wind gust speed)